Вернуться в каталог

CSC-1

АктивенСвязьSSO
NORAD 58022·PAYLOAD·🇳🇱 Netherlands

Запущен Oct 9, 2023 с Guiana Space Centre

Loading…

Ближайшие Пролёты (ближайшие 24 часа)

TLE

СвежийSource: Space-Track

Эпоха: Sep 13, 2026, 17:17 UTC

1 58022U 23155G   26256.72042929  .00001975  00000-0  12133-3 0  9994
2 58022  97.5289 324.8555 0006494 302.7705  57.2899 15.11227461161107

Отслеживайте CSC-1 в реальном времени с AllMySat

Download on the App Store